Weather History for Punta Cana, Dominican Republic

Change the Weather History Date:

Thursday, October 10, 2013

  Actual Average Record
Temperature  
Mean Temperature 80 °F -  
Max Temperature 88 °F 85 °F 91 °F (2001)
Min Temperature 73 °F 75 °F 73 °F (2002)
Cooling Degree Days 16    
Growing Degree Days 30 (Base 50)    
Moisture  
Dew Point 76 °F    
Average Humidity 87    
Maximum Humidity 100    
Minimum Humidity 73    
Precipitation  
Precipitation 0.00 in - - ()
Sea Level Pressure  
Sea Level Pressure 29.94 in    
Wind  
Wind Speed 3 mph ()    
Max Wind Speed 9 mph    
Max Gust Speed -    
Visibility 6.5 miles    
Events Rain , Thunderstorm    
Averages and records for this station are not official NWS values.
T = Trace of Precipitation, MM = Missing Value Source: Averaged Metar Reports

Daily Weather History Graph

Daily Weather History Graph

Search for Another Location

Airport:

Trip Planner

Search our weather history database for the weather conditions in past years. The results will help you decide how hot, cold, wet, or windy it might be!

Date:

Astronomy

Oct. 10, 2013 Rise Set
Actual Time 6:26 AM AST 6:14 PM AST
Civil Twilight 6:04 AM AST 6:36 PM AST
Nautical Twilight 5:38 AM AST 7:01 PM AST
Astronomical Twilight 5:13 AM AST 7:27 PM AST
Moon 11:44 AM AST (10/10) 11:17 PM AST (10/10)
Length of Visible Light 12h 32m
Length of Day
11h 48m
Waxing Crescent, 35% of the Moon is Illuminated
Oct 10
Waxing Crescent
Oct 11
First Quarter
Oct 18
Full
Oct 26
Last Quarter
Nov 3
New

Hourly Weather History & Observations

Time (AST) Temp. Heat Index Dew Point Humidity Pressure Visibility Wind Dir Wind Speed Gust Speed Precip Events Conditions
12:00 AM 77.0 °F - 75.2 °F 94% 29.95 in 6.2 mi WSW 4.6 mph - N/A   Scattered Clouds
1:00 AM 77.0 °F - 75.2 °F 94% 29.95 in 6.2 mi WSW 4.6 mph - N/A   Scattered Clouds
2:00 AM 77.0 °F - 75.2 °F 94% 29.95 in 5.0 mi Calm Calm - N/A Rain , Thunderstorm Light Thunderstorms and Rain
3:00 AM 77.0 °F - 75.2 °F 94% 29.92 in 5.0 mi Variable 3.5 mph - N/A Rain , Thunderstorm Thunderstorms and Rain
4:00 AM 73.4 °F - 73.4 °F 100% 29.95 in 4.3 mi SE 6.9 mph - N/A Rain , Thunderstorm Heavy Thunderstorms and Rain
5:00 AM 75.2 °F - 73.4 °F 94% - 5.0 mi Calm Calm - N/A Rain , Thunderstorm Light Thunderstorms and Rain
6:00 AM 75.2 °F - 75.2 °F 100% 29.92 in 6.2 mi Calm Calm - N/A   Overcast
7:00 AM 75.2 °F - 75.2 °F 100% 29.92 in 6.2 mi Calm Calm - N/A   Mostly Cloudy
7:45 AM 78.8 °F - 77.0 °F 94% 29.95 in 6.2 mi Calm Calm - N/A   Scattered Clouds
9:00 AM 82.4 °F 90.9 °F 77.0 °F 84% 29.95 in 6.2 mi Calm Calm - N/A   Scattered Clouds
10:00 AM 84.2 °F 94.1 °F 77.0 °F 79% 29.98 in 6.2 mi Variable 3.5 mph - N/A Thunderstorm Thunderstorm
11:00 AM 86 °F - 78 °F 73% 29.99 in 10 mi SSE 8.9 mph - -   Partly Cloudy
11:00 AM 86.0 °F 99.3 °F 78.8 °F 79% 29.98 in 6.2 mi SSE 8.1 mph - N/A   Scattered Clouds
12:00 PM 84.2 °F 94.1 °F 77.0 °F 79% 29.98 in 5.0 mi SSE 6.9 mph - N/A Rain , Thunderstorm Thunderstorms and Rain
1:00 PM 82.4 °F 90.9 °F 77.0 °F 84% 29.95 in 6.2 mi Variable 3.5 mph - N/A Thunderstorm Thunderstorm
2:00 PM 84.2 °F 92.3 °F 75.2 °F 74% 29.92 in 6.2 mi SE 5.8 mph - N/A   Mostly Cloudy
3:00 PM 73.4 °F - 73.4 °F 100% 29.89 in 6.2 mi Calm Calm - N/A Thunderstorm Thunderstorm
4:00 PM 82.4 °F 90.9 °F 77.0 °F 84% 29.89 in 6.2 mi SSE 9.2 mph - N/A   Mostly Cloudy
5:00 PM 83 °F - 77 °F 77% 29.91 in 10 mi ESE 6.7 mph - -   Partly Cloudy
5:00 PM 82.4 °F 90.9 °F 77.0 °F 84% 29.89 in 6.2 mi ESE 6.9 mph - N/A   Mostly Cloudy
6:00 PM 80.6 °F 86.2 °F 75.2 °F 84% 29.89 in 6.2 mi ESE 4.6 mph - N/A   Mostly Cloudy
7:00 PM 78.8 °F - 73.4 °F 83% 29.92 in 6.2 mi Calm Calm - N/A   Scattered Clouds
8:00 PM 78 °F - 76 °F 90% 29.94 in 10 mi Calm Calm - -   Partly Cloudy
9:00 PM 78.8 °F - 75.2 °F 89% 29.92 in 6.2 mi Calm Calm - N/A   Mostly Cloudy
10:00 PM 80.6 °F 86.2 °F 75.2 °F 84% 29.95 in 6.2 mi East 5.8 mph - N/A   Mostly Cloudy
11:00 PM 79 °F - 74 °F 82% 29.96 in 10 mi East 6.7 mph - -   Mostly Cloudy
11:00 PM 78.8 °F - 75.2 °F 89% 29.95 in 6.2 mi East 6.9 mph - N/A   Mostly Cloudy